Weather in Ivankivtsi

Ukraine / Kirovohrad Region     48°54′19″N   32°43′22″E
temp.,
°C
wind,
m/s
gust,
m/s
humid.,
%
clouds,
%
prec.,
mm/h
press.,
hPa
HPBL,
m
8 august, mon
mon800:00+21nw22515 0.0 101713
03:00+19nw22785 0.0 101732
06:00+18nnw23925 0.0 101859
09:00+24n44545 0.0 1018409
12:00+30nne44325 0.0 10181052
15:00+32nne43245 0.0 10172296
18:00+28n55445 0.0 1018617
21:00+21n47733 0.0 1019128
9 august, tue
tue900:00+20n36715 0.0 1019100
03:00+18n38825 0.0 1019157
06:00+18nne48914 0.0 1020216
09:00+23nne57625 0.0 1019489
12:00+28nne55405 0.0 1019964
15:00+31nne55335 0.0 10181513
18:00+29n76380 0.0 10171698
21:00+24n712540 0.0 1018527
10 august, wed
wed1000:00+20n510644 0.0 1018358
03:00+18n5118310 0.3 1018306
06:00+18n611855 0.1 1018369
09:00+23n796222 0.1 1018680
12:00+26n894495 0.0 10171245
15:00+28nne91037100 0.0 10161608
18:00+25nne8943100 0.0 10161365
21:00+21nne8115995 0.0 1016624
11 august, thu
thu1100:00+19nne61272100 0.2 1016467
03:00+19nne6127298 0.3 1015454
06:00+18nne71382100 0.0 1014388
09:00+22ne8106488 0.0 1015612
12:00+29ne683994 0.0 10141182
15:00+31ne5731100 0.0 10131935
18:00+23ese131565100 0.8 1014462
21:00+18nw4792100 10.8 101696
12 august, fri
fri1200:00+20n61084100 0.0 1016225
03:00+20nne4108893 0.1 1016209
06:00+21ne61378100 0.1 1016444
09:00+22ene71070100 0.1 1017813
12:00+22ne6876100 0.2 1016633
15:00+24ne696270 0.7 10161016
18:00+27nne46483 0.1 1014922
21:00+22nnw59775 0.1 1014177